SNUSAT-1B

Last updated on April 1, 2019, 12:02 a.m. UTC

1 42727U 98067MG  19089.91797841  .06519165  12339-4  59073-3 0  9997
2 42727  51.6087 308.8243 0009316 268.9251  91.0707 16.37980460105869

Satellite is not in orbit.